Clarksville, TX

3:03 PM CST on November 24, 2017 (GMT -0600)
Clarksville

Weather History for KLBR - May, 2014

Change the Weather History Date:

Thursday, May 15, 2014

  Actual Average (KPRX) Record (KPRX)
Temperature  
Mean Temperature 60 °F -  
Max Temperature 76 °F 78 °F 87 °F (1998)
Min Temperature 43 °F 59 °F 44 °F (2014)
Degree Days  
Heating Degree Days 6    
Growing Degree Days 10 (Base 50)    
Moisture  
Dew Point 47 °F    
Average Humidity 68    
Maximum Humidity 99    
Minimum Humidity 35    
Precipitation  
Precipitation 0.00 in - - ()
Sea Level Pressure  
Sea Level Pressure 30.18 in    
Wind  
Wind Speed 2 mph (WSW)    
Max Wind Speed 9 mph    
Max Gust Speed 17 mph    
Visibility 8 miles    
Events      
Averages and records for this station are not official NWS values.
T = Trace of Precipitation, MM = Missing Value Source: NWS Daily Summary

Daily Weather History Graph

Daily Weather History Graph

Search for Another Location

Airport or City:

Trip Planner

Search our weather history database for the weather conditions in past years. The results will help you decide how hot, cold, wet, or windy it might be!

Date:

Astronomy

May. 15, 2014 Rise Set
Actual Time 6:19 AM CDT 8:14 PM CDT
Civil Twilight 5:52 AM CDT 8:41 PM CDT
Nautical Twilight 5:18 AM CDT 9:14 PM CDT
Astronomical Twilight 4:43 AM CDT 9:50 PM CDT
Moon 9:23 PM CDT (5/15) 7:06 AM CDT (5/15)
Length of Visible Light 14h 49m
Length of Day
13h 54m
Full, 99% of the Moon is Illuminated
May 15
Full
May 21
Last Quarter
May 28
New
Jun 5
First Quarter
Jun 12
Full

Hourly Weather History & Observations

Time (CDT) Temp. Dew Point Humidity Pressure Visibility Wind Dir Wind Speed Gust Speed Precip Events Conditions
12:15 AM 48.4 °F 47.7 °F 97% 30.24 in 7.0 mi Calm Calm - N/A   Clear
12:35 AM 47.3 °F 46.6 °F 97% 30.23 in 7.0 mi Calm Calm - N/A   Clear
12:55 AM 46.6 °F 46.0 °F 98% 30.23 in 10.0 mi Calm Calm - N/A   Clear
1:15 AM 47.1 °F 46.6 °F 98% 30.23 in 7.0 mi Calm Calm - N/A   Clear
1:35 AM 46.4 °F 45.9 °F 98% 30.22 in 7.0 mi Calm Calm - N/A   Clear
1:55 AM 46.9 °F 46.4 °F 98% 30.22 in 10.0 mi Calm Calm - N/A   Clear
2:15 AM 46.2 °F 45.9 °F 99% 30.22 in 10.0 mi Calm Calm - N/A   Clear
2:35 AM 45.9 °F 45.5 °F 99% 30.21 in 7.0 mi Calm Calm - N/A   Clear
2:55 AM 45.5 °F 45.0 °F 98% 30.21 in 7.0 mi Calm Calm - N/A   Clear
3:15 AM 45.0 °F 44.4 °F 98% 30.20 in 5.0 mi Calm Calm - N/A   Clear
3:35 AM 44.4 °F 43.9 °F 98% 30.20 in 7.0 mi Calm Calm - N/A   Clear
3:55 AM 44.8 °F 44.4 °F 99% 30.20 in 7.0 mi Calm Calm - N/A   Clear
4:15 AM 44.6 °F 44.4 °F 99% 30.20 in 7.0 mi Calm Calm - N/A   Clear
4:35 AM 44.6 °F 44.2 °F 99% 30.20 in 7.0 mi Calm Calm - N/A   Clear
4:55 AM 45.1 °F 44.8 °F 99% 30.20 in 7.0 mi Calm Calm - N/A   Clear
5:15 AM 45.9 °F 45.5 °F 99% 30.20 in 10.0 mi Calm Calm - N/A   Clear
5:35 AM 45.3 °F 45.0 °F 99% 30.20 in 7.0 mi Calm Calm - N/A   Clear
5:55 AM 44.4 °F 44.1 °F 99% 30.21 in 7.0 mi Calm Calm - N/A   Clear
6:15 AM 43.7 °F 43.2 °F 98% 30.21 in 7.0 mi Calm Calm - N/A   Clear
6:35 AM 44.8 °F 44.4 °F 99% 30.21 in 7.0 mi Calm Calm - N/A   Clear
6:55 AM 45.5 °F 45.0 °F 98% 30.21 in 10.0 mi Calm Calm - N/A   Clear
7:15 AM 46.8 °F 46.4 °F 99% 30.22 in 10.0 mi Calm Calm - N/A   Clear
7:35 AM 48.2 °F 47.8 °F 99% 30.22 in 10.0 mi Calm Calm - N/A   Clear
7:55 AM 50.7 °F 49.3 °F 95% 30.23 in 10.0 mi Calm Calm - N/A   Clear
8:15 AM 52.9 °F 50.0 °F 90% 30.23 in 10.0 mi Calm Calm - N/A   Clear
8:35 AM 55.0 °F 51.4 °F 88% 30.24 in 10.0 mi Calm Calm - N/A   Clear
8:55 AM 56.8 °F 51.8 °F 83% 30.24 in 7.0 mi Calm Calm - N/A   Clear
9:15 AM 58.8 °F 51.1 °F 75% 30.24 in 7.0 mi SW 8.1 mph - N/A   Clear
9:35 AM 59.9 °F 48.4 °F 66% 30.24 in 7.0 mi SW 8.1 mph - N/A   Clear
9:55 AM 61.7 °F 48.4 °F 62% 30.24 in 7.0 mi SW 6.9 mph - N/A   Clear
10:15 AM 63.5 °F 46.9 °F 55% 30.24 in 7.0 mi SW 8.1 mph - N/A   Clear
10:35 AM 64.9 °F 46.4 °F 51% 30.23 in 10.0 mi SSW 9.2 mph 17.3 mph N/A   Clear
10:55 AM 67.1 °F 48.7 °F 52% 30.23 in 10.0 mi SW 4.6 mph - N/A   Clear
11:15 AM 68.4 °F 49.1 °F 50% 30.23 in 10.0 mi SW 9.2 mph - N/A   Clear
11:35 AM 69.1 °F 48.7 °F 48% 30.22 in 10.0 mi South 5.8 mph - N/A   Clear
11:55 AM 69.8 °F 49.6 °F 49% 30.21 in 7.0 mi SW 5.8 mph - N/A   Clear
12:35 PM 71.4 °F 48.6 °F 44% 30.21 in 10.0 mi SSW 9.2 mph - N/A   Clear
12:55 PM 72.5 °F 48.9 °F 43% 30.20 in 10.0 mi SW 5.8 mph - N/A   Clear
1:15 PM 72.7 °F 49.8 °F 44% 30.19 in 10.0 mi WSW 6.9 mph - N/A   Clear
2:15 PM 74.8 °F 48.4 °F 39% 30.16 in 10.0 mi WSW 5.8 mph - N/A   Clear
2:55 PM 75.2 °F 48.2 °F 38% 30.15 in 7.0 mi WSW 6.9 mph - N/A   Clear
3:15 PM 74.8 °F 47.5 °F 38% 30.14 in 5.0 mi SW 6.9 mph - N/A   Clear
3:35 PM 76.1 °F 46.8 °F 35% 30.13 in 7.0 mi SW 5.8 mph - N/A   Clear
3:55 PM 74.8 °F 46.9 °F 37% 30.11 in 10.0 mi SSW 4.6 mph - N/A   Clear
4:15 PM 74.8 °F 47.3 °F 38% 30.10 in 10.0 mi SW 5.8 mph - N/A   Clear
4:35 PM 72.9 °F 46.9 °F 40% 30.10 in 7.0 mi West 3.5 mph - N/A   Clear
4:55 PM 71.1 °F 43.7 °F 37% 30.11 in 7.0 mi West 5.8 mph - N/A   Clear
5:15 PM 73.2 °F 44.2 °F 35% 30.10 in 7.0 mi NNW 5.8 mph - N/A   Clear
5:35 PM 73.4 °F 44.6 °F 36% 30.09 in 3.0 mi Calm Calm - N/A   Clear
5:55 PM 71.1 °F 44.1 °F 38% 30.10 in 7.0 mi NW 3.5 mph - N/A   Clear
6:15 PM 71.1 °F 45.3 °F 40% 30.08 in 5.0 mi WNW 3.5 mph - N/A   Clear
6:35 PM 71.2 °F 46.6 °F 41% 30.09 in 7.0 mi WNW 3.5 mph - N/A   Clear
6:55 PM 70.9 °F 45.1 °F 40% 30.09 in 7.0 mi WNW 3.5 mph - N/A   Clear
7:15 PM 69.8 °F 46.4 °F 43% 30.09 in 10.0 mi NW 3.5 mph - N/A   Clear
7:35 PM 69.4 °F 47.7 °F 46% 30.09 in 5.0 mi Calm Calm - N/A   Clear
7:55 PM 67.3 °F 47.5 °F 49% 30.10 in 7.0 mi NW 3.5 mph - N/A   Clear
8:15 PM 66.9 °F 46.2 °F 47% 30.10 in 4.0 mi NW 4.6 mph - N/A   Clear
8:55 PM 66.2 °F 44.2 °F 45% 30.13 in 10.0 mi North 8.1 mph - N/A   Clear
9:15 PM 64.6 °F 46.2 °F 51% 30.15 in 10.0 mi North 6.9 mph - N/A   Clear
9:35 PM 63.5 °F 46.9 °F 55% 30.14 in 10.0 mi ENE 4.6 mph - N/A   Clear
9:55 PM 61.7 °F 48.2 °F 61% 30.14 in 10.0 mi ENE 4.6 mph - N/A   Clear
10:15 PM 61.7 °F 49.5 °F 64% 30.16 in 7.0 mi East 3.5 mph - N/A   Clear
10:35 PM 61.0 °F 50.4 °F 68% 30.16 in 10.0 mi ENE 4.6 mph - N/A   Clear
10:55 PM 60.8 °F 49.1 °F 65% 30.19 in 10.0 mi ENE 4.6 mph - N/A   Clear
11:15 PM 60.4 °F 48.2 °F 64% 30.18 in 10.0 mi ENE 4.6 mph - N/A   Clear
11:35 PM 59.7 °F 48.7 °F 67% 30.16 in 10.0 mi East 4.6 mph - N/A   Clear
11:55 PM 59.5 °F 48.9 °F 68% 30.17 in 10.0 mi East 3.5 mph - N/A   Clear